Tracking 29892 objects as of 21-Nov-2024
HD Live streaming from Space Station
objects crossing your sky now

BREEZE-M R/B

Track BREEZE-M R/B now!


NORAD ID: 37219
Int'l Code: 2010-061B
Perigee: 5,949.0 km
Apogee: 35,511.0 km
Inclination: 18.8 °
Period: 740.0 minutes
Semi major axis: 27101 km
RCS: 0.7943 m2 (medium)
Launch date: November 14, 2010
Source: Commonwealth of Independent States (former USSR) (CIS)
Launch site: TYURATAM MISSILE AND SPACE COMPLEX (TTMTR)

Note: This is a ROCKET BODY
Your satellite tracking list
Your tracking list is empty




NASA's NSSDC Master Catalog

Two Line Element Set (TLE):
1 37219U 10061B   24325.77108699 -.00000002  00000-0  00000-0 0  9996
2 37219  18.7650  33.5023 5454035 114.8281 295.0120  1.94591719 99562
Source of the keplerian elements: AFSPC